[[{"header":{"parameterUnit":"m.s-1","parameterCategory":1,"la1":30.2991,"la2":30.254,"lo1":-89.0895,"lo2":-89.0444,"dy":0.0017,"dx":0.0017,"nx":28,"ny":28,"refTime":"2025-11-05T09:00:00:Z","depth":0,"parameterNumber":2,"parameterNumberName":"U-component_of_WINDS"},"data":[0,0,0,0,0,0,0,0,0,0,0,0,0,0,0,0,0,0,0,0,0,0,0,0,0,0,0,0,0,0,0,0,0,0,0,0,0,0,0,0,0,0,0,0,0,0,0,0,0,0,0,0,0,0,0,0,0,0,-2.3661,-2.3662,0,-2.3756,-2.3757,-2.3758,-2.3696,-2.3693,-2.369,-2.3688,-2.3785,-2.379,-2.3795,0,0,0,0,0,0,0,0,0,0,0,0,0,-2.3427,-2.3432,-2.3661,-2.3662,-2.3664,-2.3755,-2.3757,-2.3758,-2.3696,-2.3693,-2.369,-2.3686,-2.3783,-2.3789,-2.3796,0,0,0,0,0,0,0,0,0,0,0,0,0,-2.3526,-2.3434,-2.3661,-2.3644,-2.3643,-2.3755,-2.3757,-2.3758,-2.3697,-2.3693,-2.3689,-2.3685,-2.3781,-2.3789,-2.3797,-2.3931,0,0,-2.3821,-2.3824,0,0,0,0,0,0,0,0,-2.3521,-2.3535,-2.3645,-2.3645,-2.3645,-2.371,-2.371,-2.3816,-2.3698,-2.3677,-2.3687,-2.3683,-2.3763,-2.3772,-2.38,-2.3935,-2.3939,-2.3821,-2.3826,-2.3829,-2.3832,0,0,0,0,0,0,0,-2.3514,-2.353,-2.3698,-2.3647,-2.3647,-2.3631,-2.3641,-2.373,-2.3743,-2.3678,-2.3674,-2.3686,-2.3762,-2.3792,-2.3801,-2.3941,-2.3821,-2.3828,-2.3833,-2.3836,-2.4191,-2.4195,0,0,0,0,0,0,-2.3508,-2.3525,-2.3695,-2.3701,-2.3571,-2.3639,-2.3649,-2.3693,-2.3742,-2.3745,-2.369,-2.3683,-2.3781,-2.3792,-2.3805,-2.3965,-2.3829,-2.3837,-2.3841,-2.4186,-2.4192,-2.4197,0,0,0,0,0,0,-2.3504,-2.3524,-2.3692,-2.3612,-2.3632,-2.3648,-2.3697,-2.3697,-2.3727,-2.375,-2.3752,-2.3718,-2.3778,-2.3793,-2.39,-2.3968,-2.384,-2.3847,-2.4181,-2.4188,-2.4195,-2.4287,0,0,0,0,0,0,-2.3497,-2.3523,-2.3574,-2.3614,-2.3637,-2.3786,-2.3701,-2.3702,-2.3741,-2.3733,-2.3777,-2.378,-2.3776,-2.3888,-2.3908,-2.3976,-2.3854,-2.4175,-2.4184,-2.4192,-2.4278,-2.4297,-2.4312,0,0,0,0,0,-2.3489,-2.3597,-2.3577,-2.3598,-2.3701,-2.379,-2.3803,-2.3795,-2.3746,-2.3798,-2.3813,-2.3779,-2.3957,-2.39,-2.3921,-2.3993,-2.4171,-2.4181,-2.4192,-2.4271,-2.4293,-2.4312,0,0,0,0,0,0,-2.3565,-2.3602,-2.358,-2.3704,-2.3744,-2.3779,-2.3844,-2.3819,-2.3874,-2.3865,-2.3853,-2.3863,-2.3975,-2.3994,-2.393,-2.4125,-2.4056,-2.4071,-2.4109,-2.413,-2.4147,-2.4141,-2.386,0,0,0,0,0,-2.3596,-2.3665,-2.3693,-2.3799,-2.3821,-2.3829,-2.3867,-2.3858,-2.3899,-2.3916,-2.3939,-2.398,-2.4045,-2.4088,-2.415,-2.428,-2.4289,-2.434,-2.4357,-2.4371,-2.4385,-2.4455,-2.4478,-2.4232,-2.4232,-2.4232,0,0,-2.3662,-2.369,-2.3734,-2.3816,-2.3846,-2.3917,-2.3844,-2.3923,-2.3976,-2.3928,-2.403,-2.4048,-2.4093,-2.4212,-2.4266,-2.4232,-2.4454,-2.4384,-2.4395,-2.4402,-2.4469,-2.4492,-2.4513,-2.4239,-2.4238,-2.4237,0,0,-2.3817,-2.3845,-2.3937,-2.3969,-2.4015,-2.4019,-2.4042,-2.408,-2.409,-2.4192,-2.4158,-2.422,-2.4332,-2.4366,-2.4398,-2.4565,-2.4537,-2.4586,-2.4675,-2.4744,-2.4764,-2.4781,-2.4841,-2.4863,-2.4599,-2.4599,-2.4599,0,-2.3893,-2.4,-2.3988,-2.4069,-2.4106,-2.4065,-2.4158,-2.4189,-2.4253,-2.428,-2.424,-2.438,-2.4408,-2.4534,-2.4575,-2.4602,-2.4627,-2.4581,-2.4762,-2.4779,-2.4795,-2.4852,-2.4875,-2.4605,-2.4604,-2.4604,-2.4603,0,-2.409,-2.4165,-2.4233,-2.4296,-2.434,-2.4427,-2.4428,-2.4474,-2.446,-2.4469,-2.4573,-2.4605,-2.4672,-2.47,-2.4688,-2.4825,-2.4803,-2.4763,-2.4694,-2.4824,-2.4878,-2.49,-2.4613,-2.4611,-2.4609,-2.4608,0,0,-2.4299,-2.4353,-2.4378,-2.4406,-2.4453,-2.4511,-2.4595,-2.466,-2.47,-2.4745,-2.4816,-2.4911,-2.4875,-2.4911,-2.4901,-2.4962,-2.5093,-2.4914,-2.4915,-2.4947,-2.5247,-2.5278,-2.5303,-2.5073,-2.5077,-2.5081,-2.5243,0,-2.4458,-2.4606,-2.4597,-2.4736,-2.4805,-2.4766,-2.484,-2.4877,-2.4887,-2.4946,-2.4957,-2.5025,-2.4971,-2.4993,-2.505,-2.5065,-2.5153,-2.5053,-2.514,-2.5143,-2.5131,-2.5331,-2.5364,-2.5516,-2.5264,-2.5268,-2.527,0,-2.4664,-2.4716,-2.4862,-2.4899,-2.4927,-2.4994,-2.5052,-2.5109,-2.515,-2.5153,-2.5193,-2.5173,-2.5259,-2.5186,-2.5303,-2.5235,-2.527,-2.5282,-2.5288,-2.5297,-2.5216,-2.5347,-2.5565,-2.5588,-2.5303,-2.5301,-2.5298,0,-2.4803,-2.4909,-2.501,-2.5035,-2.508,-2.5127,-2.5148,-2.5185,-2.5224,-2.5275,-2.53,-2.5361,-2.5394,-2.5441,-2.5438,-2.5385,-2.5558,-2.5484,-2.5563,-2.5564,-2.5603,-2.5601,-2.5831,-2.5623,-2.5623,-2.5622,-2.5622,0,-2.4983,-2.5074,-2.5073,-2.5136,-2.5236,-2.5224,-2.5324,-2.534,-2.5373,-2.5437,-2.5406,-2.5468,-2.5459,-2.5521,-2.5519,-2.5617,-2.5632,-2.5637,-2.5635,-2.5641,-2.564,-2.5664,-2.5654,-2.5628,-2.5627,-2.5626,-2.5625,0,-2.5156,-2.5159,-2.5267,-2.53,-2.531,-2.5383,-2.5411,-2.547,-2.5476,-2.5559,-2.5577,-2.5588,-2.5659,-2.566,-2.5741,-2.5739,-2.5859,-2.5845,-2.5846,-2.5844,-2.5923,-2.5916,-2.6177,-2.6211,-2.598,-2.5983,-2.5984,0,-2.5272,-2.5341,-2.5381,-2.5422,-2.5446,-2.5512,-2.5552,-2.5542,-2.5585,-2.5636,-2.5689,-2.5757,-2.581,-2.5925,-2.594,-2.6002,-2.599,-2.6077,-2.5999,-2.6002,-2.5992,-2.5989,-2.5996,-2.6093,-2.6096,-2.6098,-2.6099,0,-2.5477,-2.5474,-2.5533,-2.5592,-2.564,-2.5687,-2.5729,-2.5764,-2.576,-2.5809,-2.5881,-2.5922,-2.6005,-2.6072,-2.6132,-2.6153,-2.6126,-2.6123,-2.6145,-2.6152,-2.615,-2.6153,-2.5889,-2.6118,-2.6116,-2.6115,-2.6114,-2.6113,-2.5625,-2.5685,-2.5722,-2.5788,-2.5819,-2.5859,-2.5916,-2.593,-2.5989,-2.6055,-2.6046,-2.6126,-2.6164,-2.6241,-2.6267,-2.6329,-2.6299,-2.633,-2.6338,-2.6347,-2.6356,-2.6138,-2.634,-2.6339,-2.6339,-2.6338,-2.6338,0,-2.583,-2.5851,-2.5912,-2.5973,-2.6025,-2.5993,-2.6038,-2.6084,-2.6155,-2.6192,-2.6245,-2.6328,-2.6393,-2.6412,-2.6475,-2.6521,-2.6511,-2.6538,-2.6536,-2.6541,-2.6379,-2.6354,-2.6546,-2.6546,-2.6546,-2.6546,-2.6546,-2.6546,-2.5942,-2.6041,-2.6043,-2.6157,-2.6178,-2.6256,-2.6285,-2.6322,-2.6351,-2.6445,-2.6498,-2.651,-2.6541,-2.6605,-2.6664,-2.6667,-2.6693,-2.6726,-2.6725,-2.6573,-2.6553,-2.6533,-2.651,-2.6731,-2.6731,-2.6882,-2.6884,-2.6885]},{"header":{"parameterUnit":"m.s-1","parameterCategory":1,"la1":30.2991,"la2":30.254,"lo1":-89.0895,"lo2":-89.0444,"dy":0.0017,"dx":0.0017,"nx":28,"ny":28,"refTime":"2025-11-05T09:00:00:Z","depth":0,"parameterNumber":3,"parameterNumberName":"V-component_of_WINDS"},"data":[0,0,0,0,0,0,0,0,0,0,0,0,0,0,0,0,0,0,0,0,0,0,0,0,0,0,0,0,0,0,0,0,0,0,0,0,0,0,0,0,0,0,0,0,0,0,0,0,0,0,0,0,0,0,0,0,0,0,-2.4846,-2.4847,0,-2.4904,-2.4905,-2.4905,-2.4892,-2.4891,-2.4889,-2.4888,-2.4943,-2.4946,-2.4948,0,0,0,0,0,0,0,0,0,0,0,0,0,-2.472,-2.4722,-2.4846,-2.4847,-2.4848,-2.4904,-2.4905,-2.4905,-2.4892,-2.489,-2.4889,-2.4888,-2.4943,-2.4946,-2.4949,0,0,0,0,0,0,0,0,0,0,0,0,0,-2.4776,-2.4723,-2.4846,-2.4848,-2.4849,-2.4904,-2.4905,-2.4906,-2.4892,-2.489,-2.4889,-2.4887,-2.4942,-2.4945,-2.4949,-2.5005,0,0,-2.496,-2.4962,0,0,0,0,0,0,0,0,-2.4772,-2.478,-2.4847,-2.4848,-2.4849,-2.4889,-2.488,-2.4939,-2.4893,-2.4875,-2.4888,-2.4886,-2.4926,-2.4931,-2.4946,-2.5007,-2.501,-2.4961,-2.4963,-2.4965,-2.4966,0,0,0,0,0,0,0,-2.4769,-2.4778,-2.4869,-2.4848,-2.4849,-2.4844,-2.485,-2.4891,-2.4909,-2.4877,-2.4876,-2.4883,-2.4927,-2.4942,-2.4947,-2.5011,-2.4961,-2.4964,-2.4966,-2.4968,-2.5119,-2.5121,0,0,0,0,0,0,-2.4765,-2.4775,-2.4867,-2.4871,-2.4806,-2.4848,-2.4855,-2.4878,-2.4909,-2.4912,-2.4885,-2.4882,-2.4936,-2.4942,-2.4949,-2.5015,-2.4965,-2.4968,-2.497,-2.5117,-2.5119,-2.5121,0,0,0,0,0,0,-2.4762,-2.4773,-2.4865,-2.4822,-2.4834,-2.4852,-2.4878,-2.488,-2.4895,-2.4915,-2.4917,-2.4897,-2.4935,-2.4943,-2.4991,-2.5017,-2.497,-2.4973,-2.5115,-2.5118,-2.512,-2.5148,0,0,0,0,0,0,-2.4758,-2.4772,-2.4795,-2.4823,-2.4836,-2.4908,-2.4879,-2.4882,-2.4902,-2.49,-2.4927,-2.493,-2.4935,-2.4985,-2.4995,-2.5021,-2.4976,-2.5113,-2.5116,-2.512,-2.5145,-2.5152,-2.5157,0,0,0,0,0,-2.4754,-2.48,-2.4796,-2.4807,-2.4865,-2.4909,-2.4916,-2.4922,-2.4904,-2.4926,-2.4939,-2.493,-2.5013,-2.499,-2.5001,-2.5028,-2.5111,-2.5115,-2.5119,-2.5143,-2.515,-2.5157,0,0,0,0,0,0,-2.4773,-2.4804,-2.48,-2.4857,-2.4881,-2.4907,-2.4935,-2.493,-2.4958,-2.4955,-2.4959,-2.4965,-2.5013,-2.5026,-2.5,-2.5083,-2.5059,-2.5065,-2.5073,-2.5081,-2.5087,-2.5082,-2.4979,0,0,0,0,0,-2.4784,-2.4819,-2.4843,-2.4891,-2.4903,-2.4917,-2.4936,-2.4938,-2.4963,-2.4972,-2.4988,-2.5011,-2.5042,-2.5062,-2.5092,-2.5147,-2.5152,-2.5171,-2.5177,-2.5182,-2.5187,-2.5215,-2.5224,-2.5135,-2.5134,-2.5134,0,0,-2.4807,-2.4828,-2.4849,-2.4895,-2.4914,-2.4948,-2.4926,-2.4963,-2.4988,-2.4978,-2.5023,-2.5036,-2.5061,-2.5112,-2.5136,-2.5124,-2.5213,-2.5187,-2.5191,-2.5193,-2.522,-2.5229,-2.5236,-2.5137,-2.5137,-2.5136,0,0,-2.4865,-2.4886,-2.4927,-2.4946,-2.4975,-2.4984,-2.4994,-2.5021,-2.5029,-2.5075,-2.5068,-2.5097,-2.5151,-2.5169,-2.5185,-2.5249,-2.5241,-2.5259,-2.529,-2.5317,-2.5324,-2.533,-2.5352,-2.536,-2.5264,-2.5264,-2.5264,0,-2.489,-2.4943,-2.4949,-2.4987,-2.5006,-2.4999,-2.504,-2.5058,-2.5095,-2.5108,-2.5095,-2.5161,-2.5178,-2.5232,-2.5248,-2.5262,-2.5272,-2.5255,-2.5323,-2.5329,-2.5335,-2.5355,-2.5364,-2.5266,-2.5265,-2.5265,-2.5265,0,-2.497,-2.5006,-2.5036,-2.5073,-2.5096,-2.5135,-2.5145,-2.5167,-2.5167,-2.5176,-2.5222,-2.5242,-2.5275,-2.5288,-2.5288,-2.5342,-2.5334,-2.5322,-2.5298,-2.5345,-2.5364,-2.5373,-2.5268,-2.5268,-2.5267,-2.5267,0,0,-2.5042,-2.5082,-2.5092,-2.5108,-2.5139,-2.5167,-2.5204,-2.5238,-2.5256,-2.5281,-2.5312,-2.5357,-2.5346,-2.5364,-2.5366,-2.539,-2.5438,-2.5375,-2.5375,-2.5385,-2.5497,-2.5505,-2.5514,-2.5433,-2.5435,-2.5436,-2.5494,0,-2.5103,-2.5172,-2.5178,-2.5238,-2.5271,-2.5265,-2.5297,-2.5319,-2.5329,-2.5356,-2.5366,-2.5398,-2.5381,-2.5392,-2.5416,-2.5427,-2.546,-2.5423,-2.546,-2.5461,-2.5453,-2.5524,-2.5533,-2.5588,-2.5502,-2.5503,-2.5504,0,-2.5183,-2.5211,-2.5276,-2.5301,-2.5315,-2.5345,-2.5375,-2.5402,-2.5425,-2.543,-2.5451,-2.5449,-2.5486,-2.5461,-2.5511,-2.5485,-2.5501,-2.5508,-2.551,-2.5513,-2.5485,-2.5528,-2.5605,-2.5613,-2.5516,-2.5515,-2.5514,0,-2.5228,-2.5282,-2.5327,-2.5341,-2.5372,-2.5393,-2.5406,-2.5428,-2.5447,-2.5473,-2.5485,-2.5515,-2.5531,-2.5553,-2.5558,-2.554,-2.5607,-2.5583,-2.5611,-2.5611,-2.5625,-2.5624,-2.5704,-2.5637,-2.5636,-2.5636,-2.5636,0,-2.5294,-2.5333,-2.5348,-2.5375,-2.5418,-2.5424,-2.5466,-2.5478,-2.5497,-2.5526,-2.5522,-2.5548,-2.5554,-2.5581,-2.5585,-2.5625,-2.5633,-2.5636,-2.5637,-2.5636,-2.5636,-2.5646,-2.5641,-2.5638,-2.5638,-2.5638,-2.5637,0,-2.5351,-2.5363,-2.5411,-2.5437,-2.5444,-2.5474,-2.5495,-2.552,-2.5529,-2.5565,-2.5574,-2.5587,-2.5619,-2.5627,-2.5664,-2.5667,-2.5713,-2.5711,-2.5706,-2.5705,-2.5732,-2.5729,-2.5821,-2.5833,-2.5759,-2.5759,-2.576,0,-2.5393,-2.5423,-2.5451,-2.5471,-2.5485,-2.5517,-2.5536,-2.5542,-2.5563,-2.5591,-2.5613,-2.5644,-2.5669,-2.572,-2.5732,-2.576,-2.5757,-2.5787,-2.5761,-2.5759,-2.5756,-2.5753,-2.5756,-2.5792,-2.5793,-2.5793,-2.5794,0,-2.5464,-2.5468,-2.5497,-2.5528,-2.5552,-2.5576,-2.5599,-2.5615,-2.5624,-2.5646,-2.5679,-2.5699,-2.5737,-2.5767,-2.5796,-2.5808,-2.5802,-2.5802,-2.581,-2.5809,-2.5804,-2.5806,-2.5718,-2.58,-2.5799,-2.5799,-2.5799,-2.5798,-2.5514,-2.5539,-2.5564,-2.5596,-2.5614,-2.5635,-2.566,-2.5672,-2.57,-2.5733,-2.5734,-2.5769,-2.579,-2.5827,-2.5841,-2.5867,-2.5858,-2.5869,-2.5872,-2.5874,-2.5876,-2.5801,-2.5873,-2.5872,-2.5872,-2.5872,-2.5872,0,-2.5584,-2.5599,-2.5628,-2.5661,-2.5686,-2.568,-2.5704,-2.5725,-2.5757,-2.5777,-2.5802,-2.5839,-2.5868,-2.5882,-2.5911,-2.5929,-2.5927,-2.5936,-2.5934,-2.5937,-2.5884,-2.5874,-2.5937,-2.5937,-2.5937,-2.5937,-2.5937,-2.5937,-2.5623,-2.5666,-2.5673,-2.5724,-2.5738,-2.5773,-2.5788,-2.5807,-2.5823,-2.5865,-2.5889,-2.5899,-2.5916,-2.5946,-2.5972,-2.5975,-2.5985,-2.5995,-2.5997,-2.5947,-2.594,-2.5934,-2.5925,-2.5998,-2.5998,-2.6047,-2.6048,-2.6048]}]]